Flag for Cameroon Weather past 2 weeks in Bamenda, Cameroon

Now
81 °F

Thunderstorms. Passing clouds.


Feels Like: 87 °F
Forecast: 62 / 79 °F
Wind: 7 mph from Northwest

Location: Douala Obs.

Current Time: May 30, 2015 at 10:40:27 PM

Latest Report: May 30, 2015 at 10:00 PM


Visibility: N/A

Pressure: 29.89 "Hg

Humidity: 89%

Dew point: 77 °F

Location of BamendaLocation

Historic Weather in Bamenda — Graph

°F

Bamenda temperature yesterday

Maximum temperature yesterday: 88 °F (at 3:00 PM)
Minimum temperature yesterday: 73 °F (at 5:00 AM)
Average temperature yesterday: 80 °F

Past Weeks' High & Low Weather Summary

 TemperatureHumidityPressure
High93 °F (May 19, 1:00 PM)100% (May 16, 12:00 AM)29.98 "Hg (May 16, 12:00 AM)
Low73 °F (May 18, 5:00 AM)56% (May 19, 1:00 PM)29.77 "Hg (May 17, 4:00 PM)
Average82 °F84%29.86 "Hg
* Reported May 15 9:00 PM — May 30 9:00 PM, Bamenda, Weather by CustomWeather, © 2015

Note: Actual official high and low records may vary slightly from our data, if they occured in-between our weather recording intervals... More about our weather records

Advertising

Bamenda weather history for previous 24 hours

 ConditionsComfort  
Time TempWeatherWind HumidityBarometerVisibility
9:00 PM
Sat, May 30
81 °FThunderstorms. Partly cloudy.5 mph89%29.89 "HgN/A
8:00 PM82 °FThunderstorms. Passing clouds.5 mph84%29.89 "HgN/A
7:00 PM82 °FThunderstorms. Passing clouds.9 mph79%29.83 "HgN/A
6:00 PM84 °FPartly sunny.7 mph79%29.80 "HgN/A
5:00 PM86 °FPartly sunny.9 mph75%29.80 "HgN/A
4:00 PM86 °FPartly sunny.9 mph75%29.80 "HgN/A
3:00 PM86 °FPartly sunny.12 mph75%29.80 "HgN/A
2:00 PM86 °FPartly sunny.12 mph70%29.86 "HgN/A
1:00 PM86 °FThunderstorms. Partly sunny.12 mph75%29.89 "HgN/A
12:00 PM81 °FThunderstorms. Partly sunny.9 mph89%29.92 "HgN/A
11:00 AM81 °FThunderstorms. More clouds than sun.9 mph94%29.92 "Hg4 mi
10:00 AM82 °FThunderstorms. Broken clouds.7 mph84%29.92 "HgN/A
9:00 AM81 °FThunderstorms. More clouds than sun.5 mph89%29.92 "HgN/A
8:00 AM79 °FThunderstorms. Broken clouds.No wind94%29.89 "HgN/A
7:00 AM79 °FThunderstorms. Broken clouds.No wind94%29.86 "HgN/A
6:00 AM77 °FThunderstorms. Passing clouds.5 mph94%29.86 "HgN/A
5:00 AM79 °FThunderstorms. Passing clouds.No wind94%29.83 "HgN/A
4:00 AM77 °FThunderstorms. Passing clouds.No wind94%29.83 "HgN/A
3:00 AM79 °FPassing clouds.No wind94%29.83 "HgN/A
2:00 AM79 °FPassing clouds.No wind94%29.86 "HgN/A
1:00 AM79 °FLight rain. Partly cloudy.No wind94%29.86 "Hg4 mi
12:00 AM79 °FPassing clouds.7 mph94%29.86 "HgN/A
11:00 PM
Fri, May 29
79 °FPassing clouds.5 mph89%29.86 "HgN/A
10:00 PM81 °FPassing clouds.7 mph84%29.86 "HgN/A
Weather by CustomWeather, © 2015

See weather overviewHow to use our weather pages